Location: Unspecified
(48.8656°N, 0.0000°E)
Time: 21:05:28
(UTC+00:00)

Transit 2A Rocket - Pass Details

Date: 18 June 2019
Orbit: 588 x 915 km, 66.7° (Epoch: 18 July)

Event Time Altitude Azimuth Distance (km) Brightness Sun altitude
Rises 11:35:44 0° 217° (SW) 3,537 8.7 64.1°
Reaches altitude 10° 11:38:16 10° 219° (SW) 2,601 8.1 64.1°
Maximum altitude 11:44:23 80° 306° (NW) 919 6.6 64.3°
Drops below altitude 10° 11:50:19 10° 34° (NE) 2,520 7.6 64.5°
Sets 11:52:45 0° 36° (NE) 3,422 8.2 64.5°
